Temperature
10 10 9 9 9 9 9 9 9 8 8 8 9 9 9 9 9 9 9 9 9 9 9 9 9 9 9 9 9 9 9 9 9 9 9 9 9 10
9 9 9 9 9 9 9 9 8 8 8 8 8 8 8 8 8 8 8 8 8 8 9 9 9 9 8 8 8 9 9 9 9 9 9 9 9 9
9 9 9 9 8 8 8 8 8 8 8 8 8 8 8 8 8 8 8 8 8 8 8 8 8 8 8 8 8 8 8 8 8 8 8 9 9 9
9 9 8 8 8 8 8 8 8 8 8 8 8 8 8 8 8 8 8 8 8 8 8 8 8 8 8 8 8 8 8 8 8 8 8 8 8 8
8 8 8 8 8 8 8 8 8 7 7 7 7 7 7 7 7 7 7 7 7 7 7 7 7 8 7 7 7 7 7 7 7 7 8 8 8 8
8 8 8 8 8 8 8 7 7 7 7 7 7 7 7 7 7 7 7 7 7 7 7 7 7 7 7 7 7 7 7 7 7 7 7 7 7 7
8 8 8 7 7 7 7 7 7 7 7 7 7 7 7 6 6 6 6 6 6 6 7 7 7 7 7 7 7 7 7 7 7 7 7 7 7 7
8 8 8 7 7 7 7 7 7 7 7 6 6 6 6 6 6 6 6 6 6 6 6 6 6 7 7 7 7 6 6 6 6 7 7 7 7 7
8 8 7 7 7 7 7 6 6 6 6 6 6 6 6 6 6 6 6 6 6 6 6 6 6 6 6 6 6 6 6 6 6 6 6 6 6 6
7 7 7 7 7 7 6 6 6 6 6 6 6 6 6 6 5 5 5 5 5 5 5 5 6 6 6 6 6 6 6 6 6 6 6 6 6 6
7 7 7 7 7 6 6 6 6 6 6 6 6 5 5 5 5 5 5 5 5 5 5 5 5 5 6 6 6 6 6 6 6 6 6 6 6 6
7 7 7 6 6 6 6 6 6 6 6 6 6 6 5 5 5 5 5 5 5 5 5 5 5 5 5 6 5 5 5 5 5 5 5 5 5 5
7 7 6 6 6 6 6 6 6 6 5 5 5 5 5 5 5 5 5 5 5 5 5 4 5 5 4 5 5 5 5 5 5 5 5 5 5 5
6 6 6 6 6 6 6 5 5 5 5 5 5 5 5 5 5 5 5 5 4 4 4 4 4 4 4 4 4 5 5 5 5 5 5 5 5 5
6 6 6 6 6 6 5 5 5 5 5 5 5 5 5 5 5 5 4 4 4 4 4 4 4 4 4 4 4 4 4 4 4 4 4 4 5 5
5 5 5 5 5 5 5 5 5 5 5 5 5 4 4 4 4 4 4 4 4 4 4 4 4 4 4 4 4 4 4 4 4 4 4 4 4 4
5 5 5 5 5 5 5 5 5 4 4 4 4 4 4 4 4 4 4 4 4 4 4 4 4 4 4 4 4 4 4 4 4 4 4 4 4 4
5 5 5 5 5 5 5 4 4 4 4 4 4 4 4 4 4 4 4 4 4 4 4 4 4 3 3 3 4 3 3 3 3 3 3 3 4 4
4 4 4 4 4 4 4 4 4 4 4 4 4 4 4 3 3 3 3 3 3 3 3 3 3 3 3 3 3 3 3 3 3 3 3 3 3 4
4 4 4 4 4 4 4 4 4 4 4 4 4 3 3 3 3 3 3 3 3 3 3 3 3 3 3 3 3 3 3 3 3 3 3 3 3 3
4 4 4 4 4 4 4 4 4 4 3 3 3 3 3 3 3 3 3 3 3 3 3 3 3 3 3 2 2 3 3 3 3 3 3 3 3 3
4 4 4 4 4 4 4 3 3 3 3 3 3 3 3 3 3 2 2 3 3 3 3 3 3 3 2 2 2 2 3 3 3 2 2 2 2 2
3 3 4 3 3 3 3 3 3 3 3 3 3 3 3 2 2 2 2 2 2 2 2 2 2 2 2 2 2 2 2 2 2 2 2 2 2 2
Wind_Speed
1 1 1 0 0 1 1 2 3 1 2 2 2 3 5 5 7 7 7 6 5 5 5 5 5 5 5 6 6 6 6 6 7 7 7 7 8 8
1 1 1 1 0 1 1 1 2 2 2 2 2 3 4 4 6 7 6 7 6 5 5 5 5 5 5 5 5 5 5 6 6 6 6 6 7 7
1 0 0 0 0 0 1 1 1 1 2 2 2 2 2 3 5 5 5 5 5 5 4 4 5 5 4 5 5 6 6 6 5 5 5 5 5 6
1 1 1 0 0 0 0 1 1 1 2 2 2 2 2 2 3 3 4 4 4 4 4 4 4 4 4 3 4 4 5 5 5 5 5 5 5 6
2 2 2 1 1 1 1 1 1 1 1 2 2 2 2 2 3 3 3 4 4 4 4 4 3 3 3 3 3 4 4 4 4 4 4 4 5 5
2 2 2 3 3 2 2 2 2 1 1 1 1 2 2 2 1 2 3 3 3 4 4 4 3 2 2 3 3 4 3 3 3 4 4 3 3 4
2 2 3 3 4 3 2 3 3 2 1 1 1 2 2 1 2 2 3 3 3 2 2 3 2 2 3 3 3 3 3 3 3 3 3 3 3 3
2 3 3 4 4 4 3 3 3 3 3 2 2 3 4 3 2 2 2 2 3 2 1 3 2 2 3 3 4 3 3 3 3 3 2 2 3 3
3 3 3 3 2 2 2 2 3 4 5 4 4 5 5 5 3 3 3 3 4 2 1 3 2 3 4 4 4 4 3 3 4 3 3 3 3 3
4 4 4 3 3 2 2 2 3 4 4 4 5 6 6 5 5 5 4 3 3 2 1 3 3 3 4 4 4 4 4 4 4 3 3 4 4 4
4 4 4 4 6 3 2 3 3 4 5 6 6 6 7 6 4 2 2 2 3 3 2 2 2 3 3 3 4 4 4 4 4 4 4 4 3 3
3 4 6 6 6 5 3 3 4 5 4 3 3 4 4 4 5 4 4 4 3 3 3 2 2 1 2 2 2 3 3 4 4 4 4 4 3 2
3 4 5 7 7 7 6 5 7 5 3 3 3 3 3 3 3 4 5 5 5 4 4 3 2 2 2 3 2 2 3 3 3 4 5 5 5 3
4 4 5 7 7 7 6 6 6 4 2 2 3 3 3 4 4 4 5 6 6 6 6 4 3 3 3 3 3 3 3 3 3 3 4 5 5 6
4 6 6 6 5 5 6 6 4 2 2 3 4 4 4 4 3 3 3 3 3 4 5 5 4 3 3 4 4 3 3 3 3 3 3 3 4 3
4 4 5 4 3 4 4 3 3 3 3 4 4 3 2 2 2 2 2 2 2 3 3 5 6 5 4 4 4 4 4 3 3 3 3 4 4 5
2 1 1 1 2 2 2 2 3 2 3 3 3 3 2 2 3 2 2 2 2 3 3 2 3 4 5 4 4 5 4 4 4 3 3 4 4 5
3 2 3 4 4 4 4 4 3 4 4 3 3 3 3 3 3 2 2 3 3 4 3 2 1 1 2 3 6 6 4 4 4 4 3 4 5 5
4 4 5 5 5 5 5 4 5 5 4 4 4 4 4 3 3 3 3 3 3 4 3 2 2 2 3 4 3 6 5 4 3 3 4 4 5 5
4 5 5 5 5 5 5 5 5 4 4 4 4 4 4 3 3 4 4 4 4 3 3 3 3 4 5 5 4 4 7 6 4 4 4 3 4 5
5 5 6 6 5 6 6 5 5 5 5 4 4 4 4 4 4 4 4 5 4 4 4 5 5 5 3 1 3 4 3 6 6 4 3 2 3 2
6 6 6 6 6 6 6 5 5 5 5 5 5 4 4 4 5 5 5 4 4 5 5 4 2 2 2 4 5 4 3 2 3 4 5 5 3 3
6 6 6 6 6 5 5 5 6 5 5 5 5 5 4 4 4 4 4 4 4 4 4 3 1 1 2 3 3 3 3 2 1 1 3 4 5 7
Wind_Direction
80 78 83 39 81 127 145 155 155 203 292 303 321 338 352 359 2 10 8 16 22 25 22 21 28 38 36 36 32 26 23 23 24 27 34 32 30 28
62 72 46 7 44 75 127 128 147 169 229 272 281 307 332 350 356 6 7 7 16 23 24 30 33 34 33 34 28 23 23 23 22 26 30 27 25 23
8 85 343 339 69 46 91 105 110 143 213 284 291 307 328 338 346 357 2 6 1 8 17 22 22 23 31 35 29 25 21 19 16 18 23 21 19 16
230 205 259 205 39 313 153 166 184 177 186 252 295 306 309 315 328 336 353 350 352 346 355 3 4 10 23 21 20 14 13 14 12 13 15 14 14 11
207 203 219 179 219 251 218 208 216 200 183 212 276 291 301 318 333 330 336 339 340 337 331 336 339 352 2 5 6 8 11 5 4 2 3 4 6 5
225 223 219 210 211 212 216 209 197 186 191 210 266 292 293 297 318 318 321 325 323 337 330 326 322 335 339 348 351 355 356 355 351 350 352 354 2 3
243 248 245 240 235 226 228 205 187 188 195 221 258 296 286 283 278 280 294 306 306 327 315 319 327 333 325 318 318 327 332 337 340 338 342 352 360 358
236 261 268 263 260 254 246 228 209 204 210 221 244 253 260 254 254 267 273 307 296 305 314 298 300 277 292 294 298 299 300 306 317 322 323 332 337 341
226 241 266 270 274 245 256 259 259 252 229 215 221 236 242 238 226 245 243 247 256 269 283 287 286 272 290 287 288 281 277 285 296 298 303 312 314 316
230 229 233 249 255 228 223 255 264 266 252 236 227 236 238 232 216 225 230 246 272 270 235 268 285 280 288 295 275 269 276 282 282 282 286 293 301 308
246 243 235 238 251 243 217 243 266 277 277 263 260 258 255 248 220 193 222 243 268 261 227 239 270 283 279 269 274 262 268 273 274 273 276 286 287 296
258 257 256 250 252 242 220 223 249 264 270 282 294 294 279 250 224 214 214 228 248 255 229 219 246 282 294 273 271 282 273 267 265 266 271 276 278 287
248 256 258 259 255 249 243 234 249 257 249 242 263 277 279 262 249 237 225 217 223 237 223 201 221 221 243 279 285 271 260 268 268 267 267 268 265 259
240 246 252 260 260 257 252 257 262 262 241 247 257 264 263 259 258 254 243 235 232 231 223 207 218 216 228 257 269 270 268 264 252 255 269 273 266 259
242 253 258 255 257 259 257 261 259 238 236 246 249 257 257 254 263 272 268 253 250 245 226 225 219 222 216 237 249 256 271 269 248 240 253 257 255 253
251 261 264 254 248 255 262 260 249 238 238 245 253 258 262 261 264 264 260 251 260 273 257 233 221 211 228 236 239 251 248 242 247 251 252 259 261 249
218 206 237 267 262 262 265 260 257 257 260 257 250 255 262 263 268 264 249 235 236 255 268 267 248 234 230 226 239 244 245 254 248 244 244 263 265 255
201 218 232 236 240 244 250 258 256 253 253 252 250 245 247 254 262 266 255 234 238 249 251 247 247 283 287 262 223 234 239 248 252 241 236 252 271 272
214 227 233 236 241 243 245 247 253 254 247 242 245 246 245 248 250 251 254 251 249 252 247 230 216 220 255 272 259 217 223 244 247 246 242 242 255 264
228 233 238 239 239 240 243 248 252 255 246 238 239 242 241 240 244 246 245 247 246 257 256 240 227 224 231 244 258 261 229 223 232 243 251 255 262 270
237 239 239 239 241 242 245 246 246 247 245 239 233 237 239 238 243 247 246 248 246 244 248 252 249 239 228 229 254 268 261 238 228 229 224 237 260 267
244 242 242 241 242 243 244 243 244 247 246 240 237 234 235 236 240 243 241 240 242 244 251 259 250 221 227 236 249 255 270 287 274 261 250 236 221 229
248 247 244 241 241 241 238 236 238 243 243 241 240 238 232 236 241 242 243 244 244 243 241 243 239 241 251 240 245 255 258 268 279 295 286 272 248 248
Height
1522 1522 1522 1522 1522 1522 1522 1522 1523 1521 1520 1520 1520 1519 1519 1518 1517 1516 1515 1515 1514 1514 1513 1513 1512 1512 1511 1511 1510 1510 1510 1509 1510 1510 1509 1509 1509 1509
1521 1521 1521 1521 1521 1521 1521 1521 1521 1520 1519 1518 1518 1518 1517 1516 1516 1515 1514 1513 1513 1513 1512 1511 1511 1510 1510 1510 1509 1509 1509 1509 1509 1508 1508 1508 1508 1507
1520 1520 1520 1519 1519 1519 1519 1519 1519 1519 1518 1517 1517 1516 1515 1515 1514 1514 1513 1512 1511 1511 1510 1510 1509 1509 1509 1508 1508 1508 1507 1507 1507 1507 1506 1506 1506 1506
1518 1518 1518 1518 1518 1518 1518 1518 1517 1517 1517 1515 1515 1514 1514 1513 1512 1511 1511 1510 1510 1509 1509 1508 1508 1507 1507 1507 1506 1506 1506 1505 1505 1505 1505 1504 1504 1504
1516 1516 1516 1516 1516 1516 1516 1515 1515 1515 1515 1514 1513 1512 1511 1511 1510 1509 1509 1508 1507 1507 1507 1506 1506 1506 1505 1505 1505 1504 1504 1504 1503 1503 1503 1503 1502 1502
1515 1514 1514 1514 1513 1513 1513 1513 1513 1512 1512 1511 1510 1509 1509 1508 1507 1506 1505 1505 1505 1504 1504 1504 1504 1503 1503 1503 1503 1503 1502 1502 1502 1501 1501 1501 1501 1500
1512 1512 1512 1511 1511 1511 1511 1511 1510 1510 1509 1508 1508 1507 1506 1505 1505 1504 1503 1502 1502 1502 1502 1501 1501 1501 1500 1501 1500 1500 1500 1500 1500 1499 1499 1499 1498 1498
1510 1509 1509 1509 1508 1508 1508 1508 1508 1507 1506 1505 1505 1504 1503 1503 1502 1502 1501 1500 1499 1500 1499 1499 1498 1498 1498 1498 1498 1498 1498 1498 1497 1497 1497 1496 1496 1496
1507 1506 1506 1506 1505 1505 1505 1504 1504 1504 1504 1503 1502 1501 1501 1500 1500 1499 1498 1497 1497 1496 1496 1495 1495 1495 1495 1495 1495 1495 1495 1495 1494 1494 1494 1494 1493 1493
1504 1503 1503 1503 1502 1502 1501 1501 1500 1500 1500 1499 1499 1498 1498 1497 1497 1496 1495 1494 1494 1493 1493 1492 1491 1491 1491 1491 1491 1491 1491 1491 1491 1491 1491 1491 1490 1490
1500 1500 1499 1499 1499 1499 1498 1497 1496 1496 1496 1495 1495 1494 1494 1493 1493 1492 1492 1491 1490 1489 1489 1489 1487 1487 1487 1487 1487 1488 1488 1488 1488 1488 1487 1487 1487 1487
1496 1496 1496 1495 1495 1495 1494 1493 1492 1492 1491 1490 1490 1490 1489 1489 1489 1488 1488 1487 1486 1485 1485 1485 1484 1484 1483 1483 1483 1484 1484 1485 1484 1484 1484 1484 1483 1483
1492 1492 1491 1491 1491 1491 1490 1490 1489 1488 1487 1486 1486 1485 1484 1484 1484 1484 1483 1483 1482 1481 1481 1481 1480 1480 1480 1479 1479 1479 1480 1480 1481 1480 1480 1480 1479 1479
1488 1488 1487 1487 1486 1486 1486 1485 1485 1484 1483 1482 1481 1480 1480 1479 1479 1479 1478 1477 1477 1477 1477 1477 1476 1476 1475 1475 1474 1475 1476 1476 1476 1476 1476 1476 1476 1475
1484 1484 1483 1483 1482 1481 1481 1481 1480 1480 1479 1478 1477 1476 1476 1475 1474 1474 1472 1472 1472 1472 1472 1472 1472 1472 1472 1471 1470 1470 1470 1471 1471 1471 1471 1471 1471 1471
1479 1479 1479 1478 1477 1477 1477 1476 1475 1475 1474 1473 1472 1472 1471 1471 1470 1469 1468 1467 1467 1466 1467 1467 1467 1467 1466 1466 1466 1465 1466 1466 1466 1467 1467 1467 1467 1466
1474 1474 1473 1473 1472 1472 1472 1471 1471 1470 1469 1469 1468 1467 1467 1466 1465 1465 1464 1463 1462 1462 1462 1462 1462 1462 1462 1461 1461 1460 1461 1461 1462 1462 1462 1461 1461 1461
1469 1468 1468 1467 1467 1467 1466 1466 1466 1465 1465 1464 1463 1463 1462 1461 1461 1460 1460 1459 1458 1457 1457 1457 1457 1456 1456 1455 1456 1455 1456 1456 1457 1457 1457 1456 1455 1456
1463 1462 1462 1462 1462 1462 1461 1461 1461 1460 1460 1459 1459 1458 1457 1457 1456 1456 1455 1454 1454 1453 1453 1453 1452 1451 1451 1450 1450 1451 1451 1451 1451 1452 1452 1451 1450 1451
1457 1457 1457 1457 1457 1457 1456 1456 1456 1455 1455 1454 1454 1453 1453 1452 1452 1451 1450 1450 1449 1449 1448 1448 1447 1446 1446 1445 1444 1444 1445 1446 1446 1446 1446 1446 1446 1447
1452 1452 1452 1452 1452 1452 1451 1451 1451 1450 1450 1449 1448 1448 1448 1447 1447 1446 1446 1445 1445 1444 1443 1443 1442 1442 1442 1441 1440 1438 1439 1440 1441 1441 1441 1441 1440 1441
1447 1447 1447 1447 1447 1447 1446 1446 1445 1445 1445 1444 1443 1443 1442 1442 1441 1441 1440 1440 1440 1439 1439 1438 1438 1437 1436 1435 1433 1433 1433 1435 1436 1437 1437 1437 1436 1435
1442 1442 1441 1441 1441 1441 1441 1440 1440 1439 1439 1439 1439 1438 1437 1437 1437 1436 1436 1435 1434 1434 1434 1433 1432 1431 1430 1429 1429 1429 1429 1430 1430 1431 1432 1433 1433 1433